Location: Newark
(45.6000°N, 12.8833°E)
Time: 21:17:14
(UTC+00:00)

Vanguard 3 - Pass Details

Date: 29 November 2019
Orbit: 508 x 3263 km, 33.3° (Epoch: 11 December)

Event Time Altitude Azimuth Distance (km) Brightness Sun altitude
Rises 17:39:59 0° 277° (W) 7,232 13.3 -22.6°
Reaches altitude 10° 17:48:38 10° 257° (WSW) 6,036 12.6 -24.1°
Maximum altitude 17:56:20 14° 233° (SW) 5,319 12.0 -25.4°
Drops below altitude 10° 18:03:10 10° 206° (SSW) 5,194 11.6 -26.6°
Sets 18:09:32 0° 184° (S) 5,623 11.5 -27.7°
